This demonstration page uses our WeatherBlox Daily Observations layout. Learn more.

36.17497, -115.13722

Hourly Observations for July 6, 2020

Temp ( °F °C ) Dew Point ( °F °C ) Humidity (%) Winds ( mph kmh ) Pressure ( in mb ) Visibility ( mi km ) Precip ( " mm )
12:53 am 00:53 Clear 90 32.2 33 0.6 13 13 Calm 29.75 1007 10 16.0934 0 0
1:53 am 01:53 Clear 87 30.6 32 0 14 14 Calm 29.74 1007 10 16.0934 0 0
2:53 am 02:53 Clear 84 28.9 37 2.8 19 19 Calm 29.75 1007 10 16.0934 0 0
3:53 am 03:53 Clear 85 29.4 33 0.6 15 15 Calm 29.75 1007 10 16.0934 0 0
4:53 am 04:53 Clear 86 30 29 -1.7 13 13 NNE 7 11 29.76 1008 10 16.0934 0 0
5:53 am 05:53 Sunny 82 27.8 36 2.2 19 19 W 3 6 29.78 1009 10 16.0934 0 0
6:53 am 06:53 Sunny 86 30 34 1.1 15 15 Calm 29.8 1009 10 16.0934 0 0
7:53 am 07:53 Sunny 89 31.7 34 1.1 14 14 NNW 3 6 29.82 1010 10 16.0934 0 0
8:53 am 08:53 Sunny 93 33.9 31 -0.6 11 11 Calm 29.82 1010 10 16.0934 0 0
9:53 am 09:53 Sunny 96 35.6 30 -1.1 10 10 Calm 29.82 1010 10 16.0934 0 0
10:53 am 10:53 Sunny 100 37.8 29 -1.7 8 8 Calm 29.81 1010 10 16.0934 0 0
11:53 am 11:53 Sunny 103 39.4 29 -1.7 7 7 SE 10 17 29.8 1009 10 16.0934 0 0
12:53 pm 12:53 Sunny 105 40.6 26 -3.3 6 6 S 7 11 29.78 1009 10 16.0934 0 0
1:53 pm 13:53 Sunny 106 41.1 26 -3.3 6 6 SE 14 22 29.76 1008 10 16.0934 0 0
2:53 pm 14:53 Sunny 106 41.1 26 -3.3 6 6 VRB 3 6 29.74 1007 10 16.0934 0 0
3:53 pm 15:53 Sunny 108 42.2 26 -3.3 6 6 E 13 20 29.71 1006 10 16.0934 0 0
4:53 pm 16:53 Sunny 108 42.2 24 -4.4 5 5 SE 17 28 29.68 1005 10 16.0934 0 0
5:53 pm 17:53 Sunny 107 41.7 26 -3.3 6 6 SE 23 37 29.67 1005 10 16.0934 0 0
6:53 pm 18:53 Sunny 106 41.1 28 -2.2 6 6 SW 12 19 29.67 1005 10 16.0934 0 0
7:53 pm 19:53 Sunny 103 39.4 26 -3.3 6 6 SW 10 17 29.68 1005 10 16.0934 0 0
8:53 pm 20:53 Clear 100 37.8 26 -3.3 7 7 SW 9 15 29.69 1005 10 16.0934 0 0
9:53 pm 21:53 Clear 98 36.7 26 -3.3 8 8 SW 6 9 29.71 1006 10 16.0934 0 0
11:53 pm 23:53 Clear 94 34.4 25 -3.9 8 8 S 12 19 29.72 1006 10 16.0934 0 0

Powered by AerisWeather